Flight Track Log - Related Links

Times and Time Zones

All times are in EDT time to prevent confusion due to time zone crossing. See the N3701G flight status page for this flight to view local times or setup timezone preferences in your user account.

Time Position Orientation Groundspeed Altitude Reporting Facility
EDT Latitude Longitude Course Direction KTS km/h feet Rate Location/Type
Sun 03:39:52 PM 42.2117 -78.4694 170° South 136 253 3.400  Level Cleveland Center
Sun 03:44:52 PM 42.0272 -78.4253 172° South 142 262 3.400  Level Cleveland Center
Sun 03:45:52 PM 41.9897 -78.4181 182° South 142 262 3.400 -50 Level Cleveland Center
Sun 03:46:52 PM 41.9522 -78.4194 172° South 142 262 3.300  Descending Cleveland Center
Sun 03:47:52 PM 41.9144 -78.4122 178° South 142 262 3.400 50 Climbing Cleveland Center
Sun 03:48:52 PM 41.8769 -78.4108 175° South 142 262 3.400 50 Level Cleveland Center
Sun 03:49:52 PM 41.8414 -78.4064 175° South 142 262 3.500 50 Climbing Cleveland Center
Sun 03:50:52 PM 41.8039 -78.4019 179° South 142 262 3.500  Level Cleveland Center
Sun 03:51:52 PM 41.7642 -78.4006 178° South 142 262 3.500 -50 Level Cleveland Center
Sun 03:52:52 PM 41.7267 -78.3992 171° South 142 262 3.400  Descending Cleveland Center
Sun 03:53:52 PM 41.6911 -78.3919 169° South 142 262 3.500  Climbing Cleveland Center
Sun 03:54:52 PM 41.6533 -78.3822 168° South 142 262 3.400 -50 Descending Cleveland Center
Sun 03:55:52 PM 41.6178 -78.3722 166° South 142 262 3.400 50 Level Cleveland Center
Sun 03:56:52 PM 41.5800 -78.3597 166° South 142 262 3.500 50 Climbing Cleveland Center
Sun 03:57:52 PM 41.5422 -78.3469 170° South 142 262 3.500 -57 Level Cleveland Center
Sun 03:58:38 PM 41.5156 -78.3406 172° South 143 266 3.400 -58 Descending New York Center
Sun 03:59:36 PM 41.4764 -78.3333 166° South 143 266 3.400  Level New York Center
Sun 04:00:37 PM 41.4397 -78.3208 172° South 143 266 3.400  Level New York Center
Sun 04:01:37 PM 41.4006 -78.3139 169° South 143 266 3.400  Level New York Center
Sun 04:02:36 PM 41.3636 -78.3042 172° South 143 266 3.400  Level New York Center
Sun 04:03:38 PM 41.3267 -78.2972 172° South 143 266 3.400  Level New York Center
Sun 04:04:37 PM 41.2894 -78.2903 178° South 143 266 3.400  Level New York Center
Sun 04:05:37 PM 41.2500 -78.2886 182° South 143 266 3.400  Level New York Center
Sun 04:06:37 PM 41.2125 -78.2900 178° South 143 266 3.400  Level New York Center
Sun 04:07:38 PM 41.1750 -78.2886 178° South 143 266 3.400  Level New York Center
Sun 04:08:39 PM 41.1356 -78.2869 172° South 143 266 3.400  Level New York Center
Sun 04:09:37 PM 41.0983 -78.2803 178° South 143 266 3.400  Level New York Center
Sun 04:10:38 PM 41.0589 -78.2786 172° South 143 266 3.400  Level New York Center
Sun 04:11:36 PM 41.0219 -78.2717 179° South 143 266 3.400  Level New York Center
Sun 04:12:36 PM 40.9864 -78.2706 169° South 143 266 3.400 49 Level New York Center
Sun 04:13:38 PM 40.9494 -78.2608 172° South 143 266 3.500 49 Climbing New York Center
Sun 04:14:38 PM 40.9144 -78.2544 180° South 143 266 3.500 -60 Level New York Center
Sun 04:15:18 PM 40.8814 -78.2542 166° South 136 253 3.400 -48 Descending Cleveland Center
Sun 04:16:43 PM 40.8289 -78.2369 169° South 137 254 3.400  Level Cleveland Center
Sun 04:17:44 PM 40.7914 -78.2272 168° South 132 245 3.400  Level Cleveland Center
Sun 04:18:44 PM 40.7556 -78.2175 161° South 129 238 3.400  Level Cleveland Center
Sun 04:19:45 PM 40.7219 -78.2022 166° South 135 249 3.400  Level Cleveland Center
Sun 04:20:45 PM 40.6842 -78.1900 166° South 136 253 3.400  Level Cleveland Center
Sun 04:21:46 PM 40.6464 -78.1775 163° South 135 249 3.400 49 Level Cleveland Center
Sun 04:22:47 PM 40.6086 -78.1625 167° South 138 256 3.500  Climbing Cleveland Center
Sun 04:23:47 PM 40.5769 -78.1528 165° South 135 249 3.400 -50 Descending Cleveland Center
Sun 04:24:48 PM 40.5414 -78.1406 169° South 136 253 3.400 47 Level Cleveland Center
Sun 04:25:54 PM 40.4953 -78.1286 172° South 136 253 3.500 47 Climbing Cleveland Center
Sun 04:26:55 PM 40.4575 -78.1217 173° South 139 257 3.500 -49 Level Cleveland Center
Sun 04:27:56 PM 40.4178 -78.1150 172° South 141 261 3.400  Descending Cleveland Center
Sun 04:28:56 PM 40.3800 -78.1083 178° South 141 261 3.500  Climbing Cleveland Center
Sun 04:29:57 PM 40.3425 -78.1069 182° South 139 257 3.400 -49 Descending Cleveland Center
Sun 04:30:58 PM 40.3031 -78.1083 185° South 138 256 3.400  Level Cleveland Center
Sun 04:31:58 PM 40.2656 -78.1125 175° South 138 256 3.400  Level Cleveland Center
Sun 04:43:28 PM 39.8156 -78.0606 169° South 142 262 3.400  Level Washington Center
Sun 04:46:28 PM 39.6994 -78.0322 166° South 142 262 3.400  Level Washington Center
Sun 04:47:28 PM 39.6622 -78.0203 170° South 142 262 3.400  Level Washington Center
Sun 04:48:29 PM 39.6186 -78.0106 173° South 142 262 3.400  Level Washington Center
Sun 04:49:29 PM 39.5811 -78.0042 178° South 142 262 3.400 51 Level Washington Center
Sun 04:50:27 PM 39.5417 -78.0028 176° South 142 262 3.500 51 Climbing Washington Center
Sun 04:51:27 PM 39.5000 -77.9986 184° South 142 262 3.500 -50 Level Washington Center
Sun 04:52:28 PM 39.4583 -78.0025 185° South 142 262 3.400 -50 Descending Washington Center
Sun 04:53:28 PM 39.4186 -78.0067 178° South 147 272 3.400  Level Washington Center
Sun 04:54:29 PM 39.3811 -78.0053 175° South 142 262 3.400  Level Washington Center
Sun 04:56:00 PM 39.3333 -78.0000 180° South 142 262 3.400  Level Potomac TRACON
Sun 04:57:00 PM 39.2833 -78.0000 180° South 144 267 3.400  Level Potomac TRACON
Sun 04:58:01 PM 39.2500 -78.0000 166° South 141 261 3.400  Level Potomac TRACON
Sun 04:59:01 PM 39.2000 -77.9833 180° South 137 254 3.400 48 Level Potomac TRACON
Sun 05:00:07 PM 39.1667 -77.9833 180° South 134 248 3.500  Climbing Potomac TRACON
Sun 05:01:08 PM 39.1333 -77.9833 180° South 140 259 3.400 -50 Descending Potomac TRACON
Sun 05:02:08 PM 39.0833 -77.9833 159° South 142 262 3.400  Level Potomac TRACON
Sun 05:03:08 PM 39.0500 -77.9667 180° South 141 261 3.400  Level Potomac TRACON
Sun 05:04:09 PM 39.0000 -77.9667 159° South 135 249 3.400 49 Level Potomac TRACON
Sun 05:05:10 PM 38.9667 -77.9500 142° Southeast 137 254 3.500  Climbing Potomac TRACON
Sun 05:06:10 PM 38.9333 -77.9167 159° South 146 270 3.400 -50 Descending Potomac TRACON
Sun 05:07:10 PM 38.9000 -77.9000 142° Southeast 144 267 3.400  Level Potomac TRACON
Sun 05:08:17 PM 38.8667 -77.8667 159° South 141 261 3.400 -50 Level Potomac TRACON
Sun 05:09:11 PM 38.8333 -77.8500 142° Southeast 145 269 3.300  Descending Potomac TRACON
Sun 05:10:12 PM 38.8000 -77.8167 159° South 140 259 3.400 50 Climbing Potomac TRACON
Sun 05:11:12 PM 38.7667 -77.8000 142° Southeast 143 266 3.400  Level Potomac TRACON
Sun 05:12:13 PM 38.7333 -77.7667 142° Southeast 141 261 3.400  Level Potomac TRACON
Sun 05:13:13 PM 38.7000 -77.7333 165° South 144 267 3.400 -47 Level Potomac TRACON
Sun 05:14:20 PM 38.6500 -77.7167 142° Southeast 148 274 3.300  Descending Potomac TRACON
Sun 05:16:21 PM 38.5833 -77.6500 142° Southeast 150 278 3.400 66 Climbing Potomac TRACON
Sun 05:17:21 PM 38.5500 -77.6167 180° South 147 272 3.500  Climbing Potomac TRACON
Sun 05:18:22 PM 38.5167 -77.6167 132° Southeast 141 261 3.400 -25 Descending Potomac TRACON
Sun 05:21:17 PM 38.4333 -77.5000 130° Southeast 143 266 3.400  Level Potomac TRACON
Sun 05:22:23 PM 38.4000 -77.4500 159° South 144 267 3.400  Level Potomac TRACON
Sun 05:23:24 PM 38.3667 -77.4333 142° Southeast 143 266 3.400  Level Potomac TRACON
Sun 05:24:24 PM 38.3333 -77.4000 142° Southeast 147 272 3.400  Level Potomac TRACON
Sun 05:25:24 PM 38.3000 -77.3667 142° Southeast 149 275 3.400  Level Potomac TRACON
Sun 05:26:24 PM 38.2667 -77.3333 131° Southeast 145 269 3.400 25 Level Potomac TRACON
Sun 05:33:32 PM 38.0833 -77.0667 159° South 169 312 3.600 12 Climbing Potomac TRACON
Sun 05:34:27 PM 38.0500 -77.0500 152° Southeast 163 303 3.500 -104 Descending Potomac TRACON
Sun 05:35:27 PM 38.0000 -77.0167 142° Southeast 176 327 3.400 -50 Descending Potomac TRACON
Sun 05:36:27 PM 37.9667 -76.9833 158° South 173 320 3.400  Level Potomac TRACON
Sun 05:37:33 PM 37.9333 -76.9667 142° Southeast 196 364 3.400  Level Potomac TRACON
Sun 05:38:33 PM 37.9000 -76.9333 158° South 157 291 3.400  Level Potomac TRACON
Sun 05:39:34 PM 37.8667 -76.9167 152° Southeast 146 270 3.400 50 Level Potomac TRACON
Sun 05:40:34 PM 37.8167 -76.8833 158° South 174 322 3.500  Climbing Potomac TRACON
Sun 05:41:34 PM 37.7833 -76.8667 142° Southeast 147 272 3.400 -53 Descending Potomac TRACON
Sun 05:42:28 PM 37.7500 -76.8333 142° Southeast 151 280 3.400  Level Potomac TRACON
Sun 05:43:34 PM 37.7167 -76.8000 158° South 155 286 3.400  Level Potomac TRACON
Sun 05:44:35 PM 37.6833 -76.7833 142° Southeast 167 309 3.400  Level Potomac TRACON
Sun 05:45:35 PM 37.6500 -76.7500 152° Southeast 163 303 3.400  Level Potomac TRACON
Sun 05:46:35 PM 37.6000 -76.7167 158° South 149 275 3.400  Level Potomac TRACON
Sun 05:47:35 PM 37.5667 -76.7000 142° Southeast 160 296 3.400  Level Potomac TRACON
Sun 05:48:36 PM 37.5333 -76.6667 152° Southeast 151 280 3.400  Level Potomac TRACON
Sun 05:49:36 PM 37.4833 -76.6333 167° South 166 307 3.400  Level Potomac TRACON
Sun 05:50:18 PM 37.4658 -76.6281 143° Southeast 153 283 3.400 -95 Level Washington Center
Sun 05:51:42 PM 37.4119 -76.5775 148° Southeast 159 295 3.200 -43 Descending Washington Center
Sun 05:52:37 PM 37.3789 -76.5511 149° Southeast 156 290 3.300 146 Climbing Washington Center
Sun 05:53:45 PM 37.3394 -76.5217 154° Southeast 149 275 3.500 93 Climbing Washington Center
Sun 05:54:46 PM 37.3000 -76.4978 155° Southeast 150 278 3.500  Level Washington Center
Sun 05:55:46 PM 37.2628 -76.4764 157° South 154 285 3.500  Level Washington Center
Sun 05:56:47 PM 37.2231 -76.4553 163° South 156 290 3.500 148 Level Washington Center
Sun 05:57:48 PM 37.1817 -76.4392 161° South 155 286 3.800 298 Climbing Washington Center
Sun 05:58:48 PM 37.1442 -76.4231 153° Southeast 139 257 4.100 252 Climbing Washington Center
Sun 05:59:47 PM 37.1067 -76.3992 157° South 147 272 4.300 150 Climbing Washington Center
Sun 06:00:48 PM 37.0714 -76.3806 151° Southeast 145 269 4.400 -347 Climbing Washington Center
Sun 06:01:48 PM 37.0300 -76.3517 143° Southeast 161 298 3.600 -513 Descending Washington Center
Sun 06:02:45 PM 36.9989 -76.3228 142° Southeast 162 299 3.400 -102 Descending Washington Center
Sun 06:03:46 PM 36.9636 -76.2886 146° Southeast 160 296 3.400  Level Washington Center
Sun 06:04:46 PM 36.9261 -76.2569 156° South 154 285 3.400  Level Washington Center
Sun 06:05:47 PM 36.8886 -76.2358 157° South 155 286 3.400  Level Washington Center
Sun 06:06:46 PM 36.8492 -76.2147 139° Southeast 156 290 3.400  Level Washington Center
Sun 06:13:52 PM 36.6667 -76.0167 311° West  Level FlightAware Approximate
Sun 06:14:52 PM 36.6922 -76.0528 131° Southeast  Level Estimated
Sun 06:15:52 PM 36.6667 -76.0167 311° West  Level Estimated
Sun 06:16:52 PM 36.6922 -76.0528 131° Southeast  Level Estimated
Sun 06:17:52 PM 36.6667 -76.0167 311° West  Level FlightAware Approximate
Sun 06:18:52 PM 36.6922 -76.0528 131° Southeast  Level Estimated
Sun 06:19:52 PM 36.6667 -76.0167 311° West  Level FlightAware Approximate
Sun 06:20:52 PM 36.6922 -76.0528 131° Southeast  Level Estimated
Sun 06:21:52 PM 36.6667 -76.0167 311° West  Level FlightAware Approximate
Sun 06:22:52 PM 36.6922 -76.0528 131° Southeast  Level Estimated
Sun 06:23:52 PM 36.6667 -76.0167 311° West  Level FlightAware Approximate
Sun 06:24:52 PM 36.6922 -76.0528 131° Southeast  Level Estimated
Sun 06:25:52 PM 36.6667 -76.0167 311° West  Level FlightAware Approximate
Sun 06:26:52 PM 36.6922 -76.0528 131° Southeast  Level Estimated
Sun 06:27:52 PM 36.6667 -76.0167 311° West  Level FlightAware Approximate
Sun 06:28:52 PM 36.6922 -76.0528 131° Southeast  Level Estimated
Sun 06:29:52 PM 36.6667 -76.0167 311° West  Level FlightAware Approximate
Sun 06:30:52 PM 36.6922 -76.0528 131° Southeast  Level Estimated
Sun 06:31:52 PM 36.6667 -76.0167 311° West  Level FlightAware Approximate
Sun 06:32:52 PM 36.6922 -76.0528 311° West  Level Estimated

Login

Don't have an account? Register now (free) for customized features, flight alerts, and more!